Location: ???????
(55.4362°N, 38.1183°E)
Time: 18:21:52
(UTC+00:00)

SJ 16-02 - Pass Details

Date: 17 June 2021
Orbit: 606 x 616 km, 75.0° (Epoch: 30 July)

Event Time Altitude Azimuth Distance (km) Brightness Sun altitude
Rises 22:25:09 0° 327° (NNW) 2,880 5.5 -10.2°
Reaches altitude 10° 22:27:37 10° 316° (NW) 1,969 4.4 -10.2°
Maximum altitude 22:31:21 28° 258° (WSW) 1,158 2.5 -10.0°
Enters shadow 22:34:26 13° 205° (SSW) 1,748 3.0 -9.9°
